Regional Weather Roundup
Issued by NWS Newport/Morehead, NC

Current Version | Previous Version | Graphics & Text | Print | Product List | Glossary Off
Versions: 1 2 3 4 5 6 7 8 9 10 11 12 13 14 15 16 17 18 19 20 21 22 23 24 25 26 27 28 29 30 31 32 33 34 35 36 37 38 39 40 41 42 43 44 45 46 47 48 49 50

000
ASUS42 KMHX 020313
RWRMHX
WEATHER ROUNDUP FOR EASTERN NORTH CAROLINA
NATIONAL WEATHER SERVICE NEWPORT/MOREHEAD CITY NC
1100 PM EDT WED JUL 01 2015

NOTE: "FAIR" INDICATES FEW OR NO CLOUDS BELOW 12,000 FEET
WITH NO SIGNIFICANT WEATHER AND/OR OBSTRUCTIONS TO VISIBILITY

NCZ015>017-031-032-045>047-102-103-020400-
NORTH COAST

CITY           SKY/WX    TMP DP  RH WIND       PRES   REMARKS
EDENTON          N/A     79  72  78 SW9       29.94S
ELIZABETH CITY MOCLDY    76  72  87 SW8       29.93S
KITTY HAWK     PTCLDY    80  73  81 SW5       29.94S
MANTEO         PTCLDY    79  75  86 SW12      29.95S

$$

NCZ045>047-081-094-103-104-020400-
CENTRAL COAST

CITY           SKY/WX    TMP DP  RH WIND       PRES   REMARKS
FRISCO         PTCLDY    78  75  90 SW12      29.97R
SWANQUARTER      N/A     81 N/A N/A W9        29.91F

$$

NCZ095-097-098-100-101-020400-
SOUTHERN COAST

CITY           SKY/WX    TMP DP  RH WIND       PRES   REMARKS
BEAUFORT       MOCLDY    79  76  90 SW10      29.97S
CEDAR ISLAND     N/A     79 N/A N/A S6G12     30.00S
JACKSONVILLE   PTCLDY    76  73  91 SW5       29.97R
PINEY ISLAND   MOCLDY   N/A N/A N/A SW5       29.97R
WILMINGTON     CLEAR     79  72  79 SW8       29.99R


$$

NCZ011>013-027>030-043-044-078>080-089-090>093-098-020400-
COASTAL PLAIN

CITY           SKY/WX    TMP DP  RH WIND       PRES   REMARKS
AHOSKIE        PTCLDY    72  69  92 CALM      29.94S
CLINTON        CLOUDY    75  73  94 CALM      29.98R
ELIZABETHTOWN  MOCLDY    77  72  84 SW3       29.99R
GOLDSBORO      CLOUDY    76  72  87 SE2       29.95R
GREENVILLE     PTCLDY    77  72  83 SW6       29.98S
HAVELOCK       PTCLDY    76  73  91 SW6       29.98S
KENANSVILLE    MOCLDY    73  71  94 CALM      29.98S
KINSTON        MOCLDY    74  72  91 SW3       29.97S
NEW BERN       PTCLDY    75  72  90 SW5       29.98S
RICHLANDS      PTCLDY    73  66  78 SW5       29.98S
ROCKY MOUNT    MOCLDY    78  71  79 SW9       29.95S
WASHINGTON     CLEAR     76  71  86 SW5       29.96F
WHITEVILLE     PTCLDY    76  71  83 SW5       29.99R

$$

AMZ130-135-150-152-154-156-158-170-250-252-270-ANZ085-086-088-633-658-670-020400-
MARINE OBSERVATIONS

STATION/POSITION TIME  TEMP    WIND        PRES    WAVE   SWELL
                       AIR SEA DIR/SP/G            HT/PER HT/PER
                 (UTC) (F)     (DEG/KT/KT) (MB)    (FT/S) (FT/S)
CHESAPEAKE LIGHT 0300   80     210/ 11/ 11 1013.9
64 E VA BEACH    0250   78 77  210/ 10/ 12 1013.4    5/ 8   5/ 8
DUCK             0200   82 62  220/  7/  8 1012.7
2 E DUCK         0241      71                N/A     2/ 8
OREGON INLET     0200   79 84  220/ 12/ 14 1014.0
13E OREGON INLT  0300      74                N/A     4/ 8
HATTERAS CG      0200   77 82  220/  8/ 13 1014.4
DIAMOND BUOY     0250   80 83  240/ 19/ 21 1014.6    5/ 8   3/ 8
CAPE LOOKOUT     0300   79     230/ 10/ 13 1014.8
BEAUFORT LAB     0200   80 81  240/  7/ 13 1014.2
30 SE NEW RVR IN 0208   80 80  250/ 16/ 19 1015.5
27 SE WRIGHTSVLE 0200      80  250/ 16/ 19   N/A
5 SE WRIGHTSVLE  0208   80 80  240/ 10/ 14 1015.2
225 S CAPE HAT   0250   82 80  240/ 14/ 17 1019.0    6/ 7   3/ 7
41 SE CHARLESTON 0250   83 82  210/ 14/ 16 1016.5    4/ 6   2/ 8

$$


USA.gov is the U.S. government's official web portal to all federal, state and local government web resources and services.